DW5260 Weather Reports


time (UTC)temp
C
wind
direction
speed
KPH
gust
KPH
rain 1hr
cm
rain 24hr
cm
rain mn
cm
humidity
%
barometer
mb
20260507140027 27 194 0.0 0.0 0.00 0.00 0.00 70 1016.4
20260507134532 27 186 0.0 0.0 0.00 0.00 0.00 69 1016.5
20260507133028 26 196 0.0 1.6 0.00 0.00 0.00 73 1016.4
20260507131512 26 211 0.0 0.0 0.00 0.00 0.00 76 1016.3
20260507130021 25 233 0.0 3.2 0.00 0.00 0.00 76 1016.4
20260507124551 -17 0.0 0.0 0.00 0.00 0.00 1016.5
20260507123138 -17 0.0 0.0 0.00 0.00 0.00 1016.7
20260507121512 -17 0.0 0.0 0.00 0.00 0.00 1016.5
20260507114610 -17 0.0 0.0 0.00 0.00 0.00 1016.4
20260507113038 -17 0.0 0.0 0.00 0.00 0.00 1016.4
20260507111516 -17 0.0 0.0 0.00 0.00 0.00 1016.1
20260507104540 -17 0.0 0.0 0.00 0.00 0.00 1015.8
20260507103009 -17 0.0 0.0 0.00 0.00 0.00 1015.7
20260507101548 -17 0.0 0.0 0.00 0.00 0.00 1015.6
20260507100133 -17 0.0 0.0 0.00 0.00 0.00 1015.3
20260507094530 -17 0.0 0.0 0.00 0.00 0.00 1015.0
20260507093056 -17 0.0 0.0 0.00 0.00 0.00 1014.9
20260507091546 -17 245 0.0 0.0 0.00 0.00 0.00 1015.0
20260507090045 21 240 0.0 0.0 0.00 0.00 0.00 84 1015.0
20260507084547 21 240 0.0 0.0 0.00 0.00 0.00 84 1014.9
20260507083044 21 240 0.0 0.0 0.00 0.00 0.00 84 1014.8
20260507081537 21 241 0.0 0.0 0.00 0.00 0.00 84 1014.7
20260507080038 21 241 0.0 0.0 0.00 0.00 0.00 83 1014.6
20260507074545 22 244 0.0 0.0 0.00 0.00 0.00 83 1014.7
20260507073042 22 267 0.0 0.0 0.00 0.00 0.00 83 1014.9
20260507071538 22 214 0.0 0.0 0.00 0.00 0.00 83 1014.9
20260507070043 22 224 0.0 0.0 0.00 0.00 0.00 82 1015.2
20260507064537 22 224 0.0 0.0 0.00 0.00 0.00 82 1015.4
20260507063052 22 224 0.0 0.0 0.00 0.00 0.00 81 1015.5
20260507061541 22 254 0.0 0.0 0.00 0.00 0.00 81 1015.7
20260507060042 23 254 0.0 0.0 0.00 0.00 0.00 81 1015.9
20260507054514 23 221 0.0 0.0 0.00 0.00 0.00 80 1015.8
20260507053022 24 219 0.0 0.0 0.00 0.00 0.00 78 1015.8
20260507051510 25 177 0.0 0.0 0.00 0.00 0.00 78 1016.1
20260507050006 25 164 1.6 14.5 0.00 0.00 0.00 77 1016.2
20260507044505 25 155 0.0 0.0 0.00 0.00 0.00 77 1016.1
20260507043004 25 110 0.0 9.7 0.00 0.00 0.00 77 1015.8
20260507041504 25 172 0.0 1.6 0.00 0.00 0.00 76 1015.7
20260507040113 25 155 0.0 0.0 0.00 0.00 0.00 76 1015.9
20260507034618 25 114 0.0 8.0 0.00 0.00 0.00 77 1016.1
20260507033003 25 153 0.0 0.0 0.00 0.00 0.00 77 1016.1
20260507031518 25 229 0.0 11.3 0.00 0.00 0.00 77 1016.2
20260507030010 25 130 0.0 4.8 0.00 0.00 0.00 77 1016.0
20260507024524 25 206 0.0 3.2 0.00 0.00 0.00 76 1016.1
20260507023016 25 177 0.0 6.4 0.00 0.00 0.00 76 1016.1
20260507021520 25 117 0.0 12.9 0.00 0.00 0.00 76 1016.1
20260507020025 25 193 1.6 17.7 0.00 0.00 0.00 75 1016.1
20260507014520 25 134 0.0 0.0 0.00 0.00 0.00 74 1016.2
20260507013045 25 174 0.0 6.4 0.00 0.00 0.00 74 1016.3
20260507011522 25 158 0.0 4.8 0.00 0.00 0.00 73 1016.1
20260507010035 25 144 0.0 8.0 0.00 0.00 0.00 73 1016.0
20260507004534 25 216 0.0 8.0 0.00 0.00 0.00 72 1015.9
20260507003037 25 143 0.0 1.6 0.00 0.00 0.00 72 1015.6
20260507001539 25 103 0.0 0.0 0.00 0.00 0.00 72 1015.7
20260507000046 26 134 0.0 3.2 0.00 0.00 0.00 68 1015.5
20260506234548 26 107 0.0 12.9 0.00 0.00 0.00 67 1015.5
20260506233103 26 87 0.0 12.9 0.00 0.00 0.00 65 1015.7
20260506231551 27 121 0.0 0.0 0.00 0.00 0.00 62 1015.7
20260506230056 27 86 0.0 1.6 0.00 0.00 0.00 61 1015.7
20260506224559 27 126 0.0 9.7 0.00 0.00 0.00 60 1015.7
20260506223058 27 79 0.0 9.7 0.00 0.00 0.00 58 1015.8
20260506221604 27 115 0.0 14.5 0.00 0.00 0.00 61 1015.8
20260506220106 28 119 0.0 0.0 0.00 0.00 0.00 66 1016.0
20260506214508 27 145 0.0 14.5 0.00 0.00 0.00 66 1015.9
20260506213104 27 214 0.0 3.2 0.00 0.00 0.00 67 1015.9
20260506211504 28 191 0.0 1.6 0.00 0.00 0.00 66 1016.0
20260506210011 28 120 0.0 8.0 0.00 0.00 0.00 67 1016.1
20260506204503 27 63 0.0 12.9 0.00 0.00 0.00 68 1016.1
20260506203106 28 120 0.0 0.0 0.00 0.00 0.00 68 1016.0
20260506201605 28 120 0.0 1.6 0.00 0.00 0.00 68 1016.1
20260506200010 28 65 0.0 6.4 0.00 0.00 0.00 69 1016.1
20260506194512 28 105 0.0 1.6 0.00 0.00 0.00 69 1016.1
20260506193027 28 90 0.0 0.0 0.00 0.00 0.00 70 1016.3
20260506191527 28 137 0.0 3.2 0.00 0.00 0.00 68 1016.5
20260506190027 28 91 0.0 0.0 0.00 0.00 0.00 70 1016.6
20260506184510 28 119 0.0 6.4 0.00 0.00 0.00 71 1016.8
20260506183025 28 121 0.0 8.0 0.00 0.00 0.00 72 1016.8
20260506181528 28 101 0.0 14.5 0.00 0.00 0.00 71 1017.0
20260506180039 28 152 1.6 12.9 0.00 0.00 0.00 72 1017.1
20260506174534 28 96 0.0 0.0 0.00 0.00 0.00 72 1017.2
20260506173044 28 76 0.0 4.8 0.00 0.00 0.00 74 1017.3
20260506171548 28 188 0.0 0.0 0.00 0.00 0.00 72 1017.4
20260506170040 27 124 0.0 0.0 0.00 0.00 0.00 75 1017.5
20260506164603 27 134 0.0 1.6 0.00 0.00 0.00 74 1017.5
20260506163046 27 116 0.0 6.4 0.00 0.00 0.00 75 1017.5
20260506161551 27 131 0.0 6.4 0.00 0.00 0.00 73 1017.5
20260506160106 27 138 0.0 0.0 0.00 0.00 0.00 73 1017.7
20260506154554 28 122 0.0 0.0 0.00 0.00 0.00 72 1017.8
20260506153048 28 227 0.0 0.0 0.00 0.00 0.00 72 1017.7
20260506151548 27 155 0.0 0.0 0.00 0.00 0.00 74 1017.7
20260506150042 27 133 0.0 9.7 0.00 0.00 0.00 75 1017.6
20260506144538 27 158 0.0 3.2 0.00 0.00 0.00 76 1017.5
20260506143037 26 152 0.0 11.3 0.00 0.00 0.00 76 1017.5
20260506141552 26 116 0.0 9.7 0.00 0.00 0.00 76 1017.5